| time (UTC) | temp C | wind direction | speed KPH | gust KPH | rain 1hr cm | rain 24hr cm | rain mn cm | humidity % | barometer mb |
| 20260502151947 | 7 | 123 | 0.0 | 0.0 | 0.00 | 0.00 | 0.00 | 35 | 1024.9 |
| 20260502151443 | 8 | 120 | 1.6 | 1.6 | 0.00 | 0.00 | 0.00 | 36 | 1025.1 |
| 20260502150941 | 7 | 105 | 0.0 | 0.0 | 0.00 | 0.00 | 0.00 | 36 | 1025.1 |
| 20260502150438 | 7 | 108 | 3.2 | 3.2 | 0.00 | 0.00 | 0.00 | 36 | 1025.1 |
| 20260502130323 | -5 | 42 | 0.0 | 0.0 | 0.00 | 0.00 | 0.00 | 65 | 1025.2 |
| 20260502123809 | -5 | 42 | 1.6 | 1.6 | 0.00 | 0.00 | 0.00 | 66 | 1025.0 |
| 20260502123306 | -5 | 0 | 3.2 | 3.2 | 0.00 | 0.00 | 0.00 | 66 | 1025.1 |
| 20260502122802 | -5 | 8 | 3.2 | 3.2 | 0.00 | 0.00 | 0.00 | 65 | 1024.9 |
| 20260502122258 | -5 | 342 | 3.2 | 3.2 | 0.00 | 0.00 | 0.00 | 66 | 1025.0 |
| 20260502121757 | -5 | 63 | 1.6 | 1.6 | 0.00 | 0.00 | 0.00 | 66 | 1024.9 |
| 20260502121254 | -5 | 350 | 3.2 | 3.2 | 0.00 | 0.00 | 0.00 | 66 | 1024.7 |
| 20260502120751 | -5 | 329 | 3.2 | 3.2 | 0.00 | 0.00 | 0.00 | 67 | 1025.0 |
| 20260502120248 | -5 | 345 | 3.2 | 3.2 | 0.00 | 0.00 | 0.00 | 68 | 1024.9 |
| 20260502115745 | -5 | 332 | 3.2 | 4.8 | 0.00 | 0.00 | 0.00 | 69 | 1024.9 |
| 20260502115242 | -5 | 354 | 4.8 | 4.8 | 0.00 | 0.00 | 0.00 | 69 | 1025.1 |
| 20260502114738 | -5 | 3 | 4.8 | 4.8 | 0.00 | 0.00 | 0.00 | 68 | 1024.9 |
| 20260502114235 | -5 | 31 | 3.2 | 3.2 | 0.00 | 0.00 | 0.00 | 67 | 1025.0 |
| 20260502113732 | -5 | 77 | 3.2 | 3.2 | 0.00 | 0.00 | 0.00 | 67 | 1024.9 |
| 20260502113230 | -5 | 21 | 3.2 | 3.2 | 0.00 | 0.00 | 0.00 | 66 | 1025.1 |
| 20260502112728 | -5 | 41 | 3.2 | 3.2 | 0.00 | 0.00 | 0.00 | 65 | 1025.0 |
| 20260502112225 | -5 | 341 | 3.2 | 3.2 | 0.00 | 0.00 | 0.00 | 64 | 1025.0 |
| 20260502111722 | -5 | 44 | 1.6 | 1.6 | 0.00 | 0.00 | 0.00 | 64 | 1024.7 |
| 20260502111220 | -5 | 38 | 1.6 | 1.6 | 0.00 | 0.00 | 0.00 | 64 | 1025.0 |
| 20260502110717 | -5 | 29 | 3.2 | 3.2 | 0.00 | 0.00 | 0.00 | 64 | 1024.9 |
| 20260502110215 | -5 | 29 | 3.2 | 3.2 | 0.00 | 0.00 | 0.00 | 62 | 1025.1 |
| 20260502105713 | -4 | 71 | 1.6 | 3.2 | 0.00 | 0.00 | 0.00 | 62 | 1024.9 |
| 20260502105209 | -4 | 91 | 0.0 | 0.0 | 0.00 | 0.00 | 0.00 | 63 | 1025.0 |
| 20260502104706 | -4 | 98 | 0.0 | 0.0 | 0.00 | 0.00 | 0.00 | 62 | 1025.1 |
| 20260502104204 | -4 | 101 | 0.0 | 0.0 | 0.00 | 0.00 | 0.00 | 62 | 1025.1 |
| 20260502103701 | -3 | 102 | 0.0 | 0.0 | 0.00 | 0.00 | 0.00 | 61 | 1025.1 |
| 20260502103159 | -3 | 140 | 1.6 | 1.6 | 0.00 | 0.00 | 0.00 | 61 | 1025.1 |
| 20260502102655 | -3 | 25 | 1.6 | 1.6 | 0.00 | 0.00 | 0.00 | 61 | 1025.1 |
| 20260502102152 | -4 | 70 | 1.6 | 1.6 | 0.00 | 0.00 | 0.00 | 64 | 1024.9 |
| 20260502101650 | -4 | 48 | 1.6 | 3.2 | 0.00 | 0.00 | 0.00 | 64 | 1024.9 |
| 20260502101148 | -4 | 352 | 3.2 | 3.2 | 0.00 | 0.00 | 0.00 | 63 | 1025.1 |
| 20260502100646 | -4 | 313 | 3.2 | 4.8 | 0.00 | 0.00 | 0.00 | 59 | 1025.0 |
| 20260502100144 | -5 | 312 | 3.2 | 4.8 | 0.00 | 0.00 | 0.00 | 60 | 1024.7 |
| 20260502091118 | -3 | 17 | 1.6 | 3.2 | 0.00 | 0.00 | 0.00 | 56 | 1024.7 |
| 20260502090615 | -3 | 76 | 1.6 | 1.6 | 0.00 | 0.00 | 0.00 | 55 | 1024.7 |
| 20260502090113 | -3 | 36 | 1.6 | 1.6 | 0.00 | 0.00 | 0.00 | 54 | 1024.7 |
| 20260502071510 | -1 | 53 | 1.6 | 3.2 | 0.00 | 0.00 | 0.00 | 60 | 1024.6 |
| 20260502071008 | -2 | 336 | 3.2 | 3.2 | 0.00 | 0.00 | 0.00 | 60 | 1024.6 |
| 20260502070506 | -2 | 259 | 3.2 | 3.2 | 0.00 | 0.00 | 0.00 | 61 | 1024.7 |
| 20260502070004 | -2 | 295 | 3.2 | 4.8 | 0.00 | 0.00 | 0.00 | 60 | 1024.6 |
| 20260502065502 | -1 | 0 | 1.6 | 3.2 | 0.00 | 0.00 | 0.00 | 56 | 1024.5 |
| 20260502065000 | -1 | 286 | 3.2 | 3.2 | 0.00 | 0.00 | 0.00 | 55 | 1024.6 |
| 20260502064458 | -1 | 287 | 4.8 | 4.8 | 0.00 | 0.00 | 0.00 | 51 | 1024.6 |
| 20260502063954 | 0 | 97 | 0.0 | 0.0 | 0.00 | 0.00 | 0.00 | 49 | 1024.5 |
| 20260502063452 | 0 | 100 | 0.0 | 1.6 | 0.00 | 0.00 | 0.00 | 50 | 1024.2 |
| 20260502062949 | 0 | 95 | 0.0 | 0.0 | 0.00 | 0.00 | 0.00 | 50 | 1024.2 |
| 20260502062446 | 0 | 42 | 1.6 | 3.2 | 0.00 | 0.00 | 0.00 | 50 | 1024.2 |
| 20260502061945 | 0 | 81 | 1.6 | 1.6 | 0.00 | 0.00 | 0.00 | 52 | 1024.4 |
| 20260502061443 | 0 | 99 | 0.0 | 0.0 | 0.00 | 0.00 | 0.00 | 53 | 1024.1 |
| 20260502060938 | 0 | 88 | 0.0 | 0.0 | 0.00 | 0.00 | 0.00 | 53 | 1023.9 |
| 20260502060434 | 1 | 102 | 0.0 | 0.0 | 0.00 | 0.00 | 0.00 | 53 | 1024.4 |
| 20260502055931 | 1 | 39 | 1.6 | 1.6 | 0.00 | 0.00 | 0.00 | 53 | 1024.4 |
| 20260502055429 | 1 | 261 | 6.4 | 6.4 | 0.00 | 0.00 | 0.00 | 53 | 1024.2 |
| 20260502054923 | 1 | 222 | 4.8 | 6.4 | 0.00 | 0.00 | 0.00 | 52 | 1024.2 |
| 20260502054420 | 1 | 104 | 0.0 | 0.0 | 0.00 | 0.00 | 0.00 | 51 | 1024.5 |
| 20260502053918 | 1 | 149 | 1.6 | 1.6 | 0.00 | 0.00 | 0.00 | 51 | 1024.2 |
| 20260502053415 | 1 | 108 | 0.0 | 0.0 | 0.00 | 0.00 | 0.00 | 50 | 1024.2 |
| 20260502052913 | 1 | 356 | 3.2 | 3.2 | 0.00 | 0.00 | 0.00 | 49 | 1024.2 |
| 20260502052411 | 1 | 286 | 3.2 | 4.8 | 0.00 | 0.00 | 0.00 | 49 | 1024.1 |
| 20260502051908 | 1 | 104 | 0.0 | 0.0 | 0.00 | 0.00 | 0.00 | 49 | 1024.0 |
| 20260502051406 | 1 | 88 | 1.6 | 1.6 | 0.00 | 0.00 | 0.00 | 47 | 1023.7 |
| 20260502050903 | 1 | 97 | 0.0 | 0.0 | 0.00 | 0.00 | 0.00 | 47 | 1023.9 |
| 20260502050359 | 2 | 203 | 1.6 | 3.2 | 0.00 | 0.00 | 0.00 | 45 | 1023.9 |
| 20260502045856 | 2 | 76 | 0.0 | 1.6 | 0.00 | 0.00 | 0.00 | 43 | 1023.7 |
| 20260502045352 | 2 | 347 | 4.8 | 4.8 | 0.00 | 0.00 | 0.00 | 44 | 1023.9 |
| 20260502044849 | 2 | 36 | 1.6 | 3.2 | 0.00 | 0.00 | 0.00 | 44 | 1023.9 |
| 20260502044345 | 2 | 127 | 0.0 | 0.0 | 0.00 | 0.00 | 0.00 | 44 | 1023.7 |
| 20260502043842 | 3 | 248 | 4.8 | 4.8 | 0.00 | 0.00 | 0.00 | 44 | 1023.7 |
| 20260502043340 | 3 | 256 | 4.8 | 4.8 | 0.00 | 0.00 | 0.00 | 41 | 1023.7 |
| 20260502042840 | 5 | 205 | 3.2 | 4.8 | 0.00 | 0.00 | 0.00 | 39 | 1023.5 |
| 20260502042337 | 4 | 125 | 0.0 | 0.0 | 0.00 | 0.00 | 0.00 | 38 | 1023.5 |
| 20260502041835 | 4 | 98 | 1.6 | 1.6 | 0.00 | 0.00 | 0.00 | 38 | 1023.6 |
| 20260502041331 | 4 | 57 | 1.6 | 1.6 | 0.00 | 0.00 | 0.00 | 38 | 1023.5 |
| 20260502040829 | 3 | 335 | 1.6 | 1.6 | 0.00 | 0.00 | 0.00 | 43 | 1023.7 |
| 20260502040326 | 2 | 189 | 3.2 | 4.8 | 0.00 | 0.00 | 0.00 | 44 | 1023.7 |
| 20260502035822 | 2 | 198 | 6.4 | 6.4 | 0.00 | 0.00 | 0.00 | 46 | 1023.6 |
| 20260502035319 | 4 | 124 | 3.2 | 3.2 | 0.00 | 0.00 | 0.00 | 34 | 1023.4 |
| 20260502034816 | 5 | 156 | 1.6 | 3.2 | 0.00 | 0.00 | 0.00 | 33 | 1023.4 |
| 20260502034309 | 4 | 63 | 0.0 | 0.0 | 0.00 | 0.00 | 0.00 | 34 | 1023.1 |
| 20260502033807 | 5 | 165 | 1.6 | 3.2 | 0.00 | 0.00 | 0.00 | 33 | 1023.1 |
| 20260502033304 | 5 | 336 | 3.2 | 3.2 | 0.00 | 0.00 | 0.00 | 33 | 1023.1 |
| 20260502032801 | 6 | 334 | 6.4 | 6.4 | 0.00 | 0.00 | 0.00 | 32 | 1023.0 |
| 20260502032257 | 6 | 295 | 4.8 | 4.8 | 0.00 | 0.00 | 0.00 | 31 | 1023.0 |
| 20260502031755 | 6 | 87 | 0.0 | 1.6 | 0.00 | 0.00 | 0.00 | 33 | 1022.8 |
| 20260502031252 | 6 | 107 | 0.0 | 0.0 | 0.00 | 0.00 | 0.00 | 33 | 1022.9 |
| 20260502030751 | 8 | 353 | 4.8 | 4.8 | 0.00 | 0.00 | 0.00 | 31 | 1022.5 |
| 20260502030248 | 9 | 203 | 1.6 | 3.2 | 0.00 | 0.00 | 0.00 | 29 | 1022.5 |
| 20260502025745 | 10 | 142 | 0.0 | 1.6 | 0.00 | 0.00 | 0.00 | 28 | 1022.4 |
| 20260502025243 | 10 | 145 | 1.6 | 1.6 | 0.00 | 0.00 | 0.00 | 28 | 1022.0 |
| 20260502024741 | 10 | 136 | 1.6 | 1.6 | 0.00 | 0.00 | 0.00 | 28 | 1022.3 |
| 20260502024238 | 10 | 115 | 0.0 | 0.0 | 0.00 | 0.00 | 0.00 | 27 | 1022.3 |
| 20260502023736 | 10 | 112 | 0.0 | 0.0 | 0.00 | 0.00 | 0.00 | 26 | 1022.3 |
| 20260502023234 | 11 | 125 | 0.0 | 0.0 | 0.00 | 0.00 | 0.00 | 25 | 1022.0 |
| 20260502022731 | 11 | 118 | 0.0 | 0.0 | 0.00 | 0.00 | 0.00 | 25 | 1022.0 |
| 20260502022227 | 11 | 155 | 1.6 | 3.2 | 0.00 | 0.00 | 0.00 | 24 | 1021.9 |
| 20260502021724 | 12 | 135 | 1.6 | 1.6 | 0.00 | 0.00 | 0.00 | 24 | 1021.9 |
| 20260502021222 | 12 | 157 | 1.6 | 1.6 | 0.00 | 0.00 | 0.00 | 23 | 1022.2 |
| 20260502020719 | 12 | 139 | 1.6 | 1.6 | 0.00 | 0.00 | 0.00 | 24 | 1022.0 |
| 20260502020216 | 12 | 159 | 1.6 | 1.6 | 0.00 | 0.00 | 0.00 | 24 | 1021.8 |
| 20260502015715 | 12 | 193 | 3.2 | 3.2 | 0.00 | 0.00 | 0.00 | 24 | 1021.9 |
| 20260502015210 | 13 | 178 | 4.8 | 4.8 | 0.00 | 0.00 | 0.00 | 22 | 1021.8 |
| 20260502014708 | 13 | 179 | 4.8 | 6.4 | 0.00 | 0.00 | 0.00 | 22 | 1021.9 |
| 20260502014205 | 13 | 185 | 3.2 | 4.8 | 0.00 | 0.00 | 0.00 | 21 | 1021.8 |
| 20260502013701 | 14 | 161 | 3.2 | 3.2 | 0.00 | 0.00 | 0.00 | 21 | 1021.8 |
| 20260502013156 | 14 | 165 | 4.8 | 4.8 | 0.00 | 0.00 | 0.00 | 20 | 1021.7 |
| 20260502012654 | 14 | 158 | 6.4 | 6.4 | 0.00 | 0.00 | 0.00 | 19 | 1021.7 |
| 20260502012152 | 14 | 104 | 3.2 | 3.2 | 0.00 | 0.00 | 0.00 | 20 | 1021.7 |
| 20260502011648 | 14 | 162 | 4.8 | 4.8 | 0.00 | 0.00 | 0.00 | 20 | 1021.8 |
| 20260502011144 | 14 | 163 | 3.2 | 4.8 | 0.00 | 0.00 | 0.00 | 20 | 1021.5 |
| 20260502010642 | 14 | 194 | 6.4 | 6.4 | 0.00 | 0.00 | 0.00 | 19 | 1021.7 |
| 20260502010138 | 14 | 158 | 6.4 | 6.4 | 0.00 | 0.00 | 0.00 | 19 | 1021.4 |
| 20260502005635 | 14 | 193 | 8.0 | 9.7 | 0.00 | 0.00 | 0.00 | 19 | 1021.8 |
| 20260502005133 | 15 | 166 | 8.0 | 9.7 | 0.00 | 0.00 | 0.00 | 19 | 1021.7 |
| 20260502004628 | 14 | 181 | 8.0 | 11.3 | 0.00 | 0.00 | 0.00 | 19 | 1021.4 |
| 20260502004125 | 15 | 189 | 11.3 | 14.5 | 0.00 | 0.00 | 0.00 | 19 | 1021.3 |
| 20260502003624 | 15 | 180 | 3.2 | 3.2 | 0.00 | 0.00 | 0.00 | 19 | 1021.7 |
| 20260502003120 | 15 | 233 | 4.8 | 6.4 | 0.00 | 0.00 | 0.00 | 18 | 1021.7 |
| 20260502002616 | 15 | 343 | 3.2 | 3.2 | 0.00 | 0.00 | 0.00 | 19 | 1021.5 |
| 20260502002114 | 15 | 246 | 3.2 | 3.2 | 0.00 | 0.00 | 0.00 | 19 | 1021.5 |
| 20260502001612 | 15 | 207 | 4.8 | 6.4 | 0.00 | 0.00 | 0.00 | 19 | 1021.5 |
| 20260502001109 | 15 | 183 | 3.2 | 3.2 | 0.00 | 0.00 | 0.00 | 19 | 1021.7 |
| 20260502000607 | 15 | 275 | 8.0 | 9.7 | 0.00 | 0.00 | 0.00 | 19 | 1021.5 |
| 20260502000104 | 15 | 257 | 6.4 | 6.4 | 0.00 | 0.00 | 0.00 | 19 | 1021.7 |
| 20260501235600 | 15 | 183 | 3.2 | 4.8 | 0.00 | 0.00 | 0.00 | 19 | 1021.7 |
| 20260501235056 | 15 | 221 | 6.4 | 6.4 | 0.00 | 0.00 | 0.00 | 19 | 1021.8 |
| 20260501234551 | 15 | 230 | 6.4 | 6.4 | 0.00 | 0.00 | 0.00 | 19 | 1021.7 |
| 20260501234049 | 15 | 241 | 6.4 | 6.4 | 0.00 | 0.00 | 0.00 | 19 | 1021.7 |
| 20260501233547 | 15 | 263 | 11.3 | 12.9 | 0.00 | 0.00 | 0.00 | 19 | 1021.8 |
| 20260501233044 | 14 | 126 | 1.6 | 1.6 | 0.00 | 0.00 | 0.00 | 19 | 1021.7 |
| 20260501232540 | 14 | 187 | 9.7 | 11.3 | 0.00 | 0.00 | 0.00 | 19 | 1021.8 |
| 20260501232037 | 15 | 204 | 12.9 | 14.5 | 0.00 | 0.00 | 0.00 | 19 | 1021.8 |
| 20260501231535 | 14 | 145 | 4.8 | 6.4 | 0.00 | 0.00 | 0.00 | 20 | 1021.7 |
| 20260501231033 | 15 | 110 | 8.0 | 9.7 | 0.00 | 0.00 | 0.00 | 19 | 1021.7 |
| 20260501230532 | 14 | 218 | 8.0 | 9.7 | 0.00 | 0.00 | 0.00 | 19 | 1021.7 |
| 20260501230029 | 15 | 199 | 12.9 | 16.1 | 0.00 | 0.00 | 0.00 | 19 | 1021.8 |
| 20260501225527 | 14 | 183 | 6.4 | 9.7 | 0.00 | 0.00 | 0.00 | 20 | 1021.9 |
| 20260501225023 | 13 | 182 | 11.3 | 12.9 | 0.00 | 0.00 | 0.00 | 20 | 1021.7 |
| 20260501224520 | 14 | 277 | 9.7 | 11.3 | 0.00 | 0.00 | 0.00 | 20 | 1021.5 |
| 20260501224017 | 14 | 192 | 8.0 | 9.7 | 0.00 | 0.00 | 0.00 | 20 | 1021.9 |
| 20260501223514 | 15 | 167 | 9.7 | 12.9 | 0.00 | 0.00 | 0.00 | 19 | 1022.2 |
| 20260501223010 | 15 | 182 | 6.4 | 6.4 | 0.00 | 0.00 | 0.00 | 19 | 1021.9 |
| 20260501222506 | 14 | 213 | 3.2 | 3.2 | 0.00 | 0.00 | 0.00 | 19 | 1022.2 |
| 20260501222002 | 14 | 204 | 8.0 | 11.3 | 0.00 | 0.00 | 0.00 | 20 | 1022.0 |
| 20260501221459 | 15 | 221 | 3.2 | 4.8 | 0.00 | 0.00 | 0.00 | 19 | 1021.8 |
| 20260501220957 | 15 | 169 | 0.0 | 0.0 | 0.00 | 0.00 | 0.00 | 19 | 1022.0 |
| 20260501220454 | 14 | 157 | 1.6 | 3.2 | 0.00 | 0.00 | 0.00 | 19 | 1022.3 |
| 20260501215950 | 13 | 177 | 6.4 | 6.4 | 0.00 | 0.00 | 0.00 | 20 | 1021.9 |
| 20260501215447 | 14 | 194 | 8.0 | 11.3 | 0.00 | 0.00 | 0.00 | 20 | 1022.2 |
| 20260501214942 | 13 | 174 | 9.7 | 12.9 | 0.00 | 0.00 | 0.00 | 21 | 1022.3 |
| 20260501214438 | 13 | 142 | 11.3 | 14.5 | 0.00 | 0.00 | 0.00 | 22 | 1022.4 |
| 20260501213933 | 13 | 96 | 6.4 | 9.7 | 0.00 | 0.00 | 0.00 | 21 | 1022.4 |
| 20260501213431 | 13 | 179 | 8.0 | 9.7 | 0.00 | 0.00 | 0.00 | 20 | 1022.4 |
| 20260501212926 | 13 | 186 | 11.3 | 12.9 | 0.00 | 0.00 | 0.00 | 20 | 1022.4 |
| 20260501212424 | 14 | 140 | 1.6 | 4.8 | 0.00 | 0.00 | 0.00 | 19 | 1022.6 |
| 20260501211920 | 14 | 27 | 6.4 | 11.3 | 0.00 | 0.00 | 0.00 | 20 | 1022.6 |
| 20260501211418 | 14 | 331 | 3.2 | 4.8 | 0.00 | 0.00 | 0.00 | 20 | 1022.9 |
| 20260501210915 | 14 | 102 | 3.2 | 4.8 | 0.00 | 0.00 | 0.00 | 20 | 1022.9 |
| 20260501210412 | 14 | 193 | 1.6 | 1.6 | 0.00 | 0.00 | 0.00 | 20 | 1022.6 |
| 20260501205909 | 13 | 224 | 3.2 | 4.8 | 0.00 | 0.00 | 0.00 | 21 | 1022.9 |
| 20260501205406 | 13 | 43 | 3.2 | 3.2 | 0.00 | 0.00 | 0.00 | 21 | 1022.8 |
| 20260501204903 | 13 | 26 | 1.6 | 1.6 | 0.00 | 0.00 | 0.00 | 22 | 1022.8 |
| 20260501204358 | 13 | 98 | 3.2 | 4.8 | 0.00 | 0.00 | 0.00 | 22 | 1022.6 |
| 20260501203854 | 13 | 165 | 11.3 | 12.9 | 0.00 | 0.00 | 0.00 | 24 | 1022.8 |
| 20260501203352 | 12 | 68 | 1.6 | 1.6 | 0.00 | 0.00 | 0.00 | 24 | 1022.8 |
| 20260501202848 | 13 | 357 | 4.8 | 4.8 | 0.00 | 0.00 | 0.00 | 25 | 1022.6 |
| 20260501202346 | 12 | 353 | 14.5 | 14.5 | 0.00 | 0.00 | 0.00 | 26 | 1022.6 |
| 20260501201842 | 12 | 63 | 3.2 | 4.8 | 0.00 | 0.00 | 0.00 | 26 | 1022.8 |
| 20260501201339 | 12 | 131 | 3.2 | 3.2 | 0.00 | 0.00 | 0.00 | 25 | 1023.0 |
| 20260501200836 | 13 | 5 | 6.4 | 9.7 | 0.00 | 0.00 | 0.00 | 26 | 1022.9 |
| 20260501200333 | 12 | 16 | 3.2 | 3.2 | 0.00 | 0.00 | 0.00 | 28 | 1023.0 |
| 20260501195831 | 12 | 60 | 3.2 | 4.8 | 0.00 | 0.00 | 0.00 | 29 | 1023.3 |
| 20260501195326 | 12 | 30 | 4.8 | 6.4 | 0.00 | 0.00 | 0.00 | 26 | 1023.1 |
| 20260501194822 | 12 | 93 | 3.2 | 4.8 | 0.00 | 0.00 | 0.00 | 28 | 1023.3 |
| 20260501194319 | 12 | 194 | 8.0 | 9.7 | 0.00 | 0.00 | 0.00 | 27 | 1023.1 |
| 20260501193816 | 12 | 182 | 3.2 | 6.4 | 0.00 | 0.00 | 0.00 | 28 | 1023.1 |
| 20260501193315 | 11 | 178 | 8.0 | 9.7 | 0.00 | 0.00 | 0.00 | 28 | 1023.3 |
| 20260501192811 | 12 | 148 | 11.3 | 12.9 | 0.00 | 0.00 | 0.00 | 29 | 1023.1 |
| 20260501192309 | 11 | 158 | 12.9 | 14.5 | 0.00 | 0.00 | 0.00 | 31 | 1023.3 |
| 20260501191805 | 11 | 131 | 4.8 | 4.8 | 0.00 | 0.00 | 0.00 | 32 | 1023.1 |
| 20260501191303 | 11 | 192 | 9.7 | 12.9 | 0.00 | 0.00 | 0.00 | 32 | 1023.5 |
| 20260501190759 | 11 | 83 | 4.8 | 4.8 | 0.00 | 0.00 | 0.00 | 32 | 1023.4 |
| 20260501190254 | 11 | 90 | 0.0 | 0.0 | 0.00 | 0.00 | 0.00 | 32 | 1023.4 |
| 20260501185750 | 11 | 135 | 0.0 | 0.0 | 0.00 | 0.00 | 0.00 | 31 | 1023.4 |
| 20260501185246 | 10 | 148 | 3.2 | 4.8 | 0.00 | 0.00 | 0.00 | 33 | 1023.4 |
| 20260501184742 | 10 | 163 | 6.4 | 9.7 | 0.00 | 0.00 | 0.00 | 35 | 1023.5 |
| 20260501184238 | 11 | 183 | 9.7 | 12.9 | 0.00 | 0.00 | 0.00 | 34 | 1023.6 |
| 20260501183734 | 10 | 92 | 0.0 | 0.0 | 0.00 | 0.00 | 0.00 | 35 | 1023.6 |
| 20260501183231 | 10 | 175 | 3.2 | 4.8 | 0.00 | 0.00 | 0.00 | 35 | 1023.5 |
| 20260501182727 | 10 | 203 | 6.4 | 6.4 | 0.00 | 0.00 | 0.00 | 37 | 1023.6 |
| 20260501182225 | 10 | 192 | 11.3 | 12.9 | 0.00 | 0.00 | 0.00 | 36 | 1023.6 |
| 20260501181721 | 10 | 100 | 3.2 | 3.2 | 0.00 | 0.00 | 0.00 | 37 | 1023.7 |
| 20260501181219 | 10 | 161 | 9.7 | 11.3 | 0.00 | 0.00 | 0.00 | 37 | 1023.7 |
| 20260501180717 | 10 | 149 | 9.7 | 11.3 | 0.00 | 0.00 | 0.00 | 38 | 1023.7 |
| 20260501180212 | 9 | 240 | 9.7 | 11.3 | 0.00 | 0.00 | 0.00 | 39 | 1023.6 |
| 20260501175709 | 10 | 164 | 9.7 | 9.7 | 0.00 | 0.00 | 0.00 | 40 | 1023.7 |
| 20260501175206 | 10 | 138 | 9.7 | 11.3 | 0.00 | 0.00 | 0.00 | 40 | 1023.9 |
| 20260501174703 | 9 | 182 | 4.8 | 6.4 | 0.00 | 0.00 | 0.00 | 41 | 1023.9 |
| 20260501174200 | 9 | 103 | 0.0 | 1.6 | 0.00 | 0.00 | 0.00 | 40 | 1024.2 |
| 20260501173658 | 9 | 78 | 3.2 | 4.8 | 0.00 | 0.00 | 0.00 | 40 | 1024.1 |
| 20260501173155 | 8 | 114 | 0.0 | 0.0 | 0.00 | 0.00 | 0.00 | 41 | 1024.2 |
| 20260501172651 | 8 | 356 | 3.2 | 3.2 | 0.00 | 0.00 | 0.00 | 42 | 1024.0 |
| 20260501172146 | 8 | 209 | 6.4 | 9.7 | 0.00 | 0.00 | 0.00 | 42 | 1024.2 |
| 20260501171642 | 8 | 85 | 6.4 | 6.4 | 0.00 | 0.00 | 0.00 | 43 | 1024.2 |
| 20260501171139 | 9 | 136 | 6.4 | 6.4 | 0.00 | 0.00 | 0.00 | 43 | 1024.4 |
| 20260501170637 | 8 | 116 | 1.6 | 3.2 | 0.00 | 0.00 | 0.00 | 43 | 1024.2 |
| 20260501170133 | 7 | 18 | 4.8 | 4.8 | 0.00 | 0.00 | 0.00 | 45 | 1024.5 |
| 20260501165630 | 7 | 12 | 11.3 | 14.5 | 0.00 | 0.00 | 0.00 | 45 | 1024.4 |
| 20260501165127 | 8 | 248 | 8.0 | 11.3 | 0.00 | 0.00 | 0.00 | 44 | 1024.2 |
| 20260501164626 | 7 | 101 | 0.0 | 1.6 | 0.00 | 0.00 | 0.00 | 45 | 1024.1 |
| 20260501164122 | 7 | 215 | 3.2 | 4.8 | 0.00 | 0.00 | 0.00 | 45 | 1024.4 |
| 20260501163619 | 7 | 237 | 8.0 | 9.7 | 0.00 | 0.00 | 0.00 | 47 | 1024.1 |
| 20260501163116 | 7 | 109 | 0.0 | 0.0 | 0.00 | 0.00 | 0.00 | 49 | 1024.2 |
| 20260501162612 | 6 | 35 | 1.6 | 1.6 | 0.00 | 0.00 | 0.00 | 51 | 1024.2 |
| 20260501162109 | 6 | 178 | 4.8 | 4.8 | 0.00 | 0.00 | 0.00 | 51 | 1024.2 |
| 20260501161606 | 6 | 218 | 3.2 | 4.8 | 0.00 | 0.00 | 0.00 | 52 | 1024.5 |
| 20260501161102 | 6 | 177 | 4.8 | 4.8 | 0.00 | 0.00 | 0.00 | 51 | 1024.4 |
| 20260501160559 | 6 | 134 | 3.2 | 3.2 | 0.00 | 0.00 | 0.00 | 53 | 1024.4 |
| 20260501160056 | 6 | 129 | 1.6 | 1.6 | 0.00 | 0.00 | 0.00 | 55 | 1024.2 |
| 20260501155552 | 6 | 110 | 6.4 | 6.4 | 0.00 | 0.00 | 0.00 | 55 | 1024.4 |
| 20260501155050 | 6 | 100 | 0.0 | 0.0 | 0.00 | 0.00 | 0.00 | 56 | 1024.5 |
| 20260501154547 | 6 | 87 | 1.6 | 3.2 | 0.00 | 0.00 | 0.00 | 56 | 1024.6 |
| 20260501154044 | 6 | 55 | 0.0 | 0.0 | 0.00 | 0.00 | 0.00 | 56 | 1024.5 |
| 20260501153542 | 6 | 49 | 1.6 | 1.6 | 0.00 | 0.00 | 0.00 | 58 | 1024.2 |
| 20260501153038 | 6 | 96 | 0.0 | 0.0 | 0.00 | 0.00 | 0.00 | 58 | 1024.5 |
| 20260501152535 | 4 | 108 | 1.6 | 1.6 | 0.00 | 0.00 | 0.00 | 63 | 1024.6 |